Погода в Бергамаке

Россия / Омская область     56°24′51″N   75°03′12″E
темп.,
°C
ветер,
м/с
пор.,
м/с
влажн.,
%
обл.,
%
осадки,
мм/ч
давл.,
гПа
погр.,
м
2 марта, вт
вт200:00−17всв129792 0.3 101423
03:00−18в019783 0.1 101520
06:00−20зюз0010084 0.1 101520
09:00−17ююз119792 0.1 101573
12:00−14юз239192 0.1 1015383
15:00−12юз2391100 0.1 1014490
18:00−14ююз2296100 0.1 101471
21:00−17ю229895 0.1 101437
3 марта, ср
ср300:00−17ю269797 0.1 1014182
03:00−20ююз2310095 0.0 101473
06:00−21ю239995 0.1 101472
09:00−19ю389786 0.0 1013232
12:00−13ю489491 0.1 1013418
15:00−11ю51091100 0.0 1012562
18:00−13ю51191100 0.1 1011585
21:00−13ююз51294100 0.8 1010635
4 марта, чт
чт400:00−10ююз51294100 1.4 1010711
03:00−8ююз41194100 0.3 1008594
06:00−6ююз41195100 0.6 1008534
09:00−4ююз51194100 0.6 1006698
12:00−2ююз51094100 1.1 1005809
15:00−1ююз61196100 0.7 1003895
18:00−1ю71396100 1.8 10011014
21:00−1ююз71495100 0.9 10001027
5 марта, пт
пт500:00−1ююз61296100 1.9 999876
03:00−2юз61296100 1.0 998897
06:00−4зюз61194100 1.7 1000694
09:00−7зюз61291100 0.5 1003780
12:00−7юз6118892 0.6 1006684
15:00−7ююз6129297 0.1 1007700
18:00−7юз6129398 1.2 10071007
21:00−6юз61591100 0.7 1007807
6 марта, сб
сб600:00−4юз61491100 0.8 1007799
03:00−3юз61296100 1.1 1005808
06:00−4ююз61295100 2.8 1004800
09:00−4ююз61394100 0.9 1003812
12:00−2ююз71494100 2.5 1000953
15:00−1юз91692100 0.9 9991189
18:00−4зюз81482100 1.4 10021075
21:00−8з61489100 0.1 1007813